Regional Weather Roundup
Issued by NWS Sioux Falls, SD

Home | Current Version | Previous Version | Text Only | Print | Product List | Glossary Off
Versions: 1 2 3 4 5 6 7 8 9 10 11 12 13 14 15 16 17 18 19 20 21 22 23 24 25 26 27 28 29 30 31 32 33 34 35 36 37 38 39 40 41 42 43 44 45 46 47 48 49 50

000
ASUS43 KFSD 261210
RWRFSD

WEATHER ROUNDUP FOR SE SOUTH DAKOTA/SW MINNESOTA/NW IOWA
NATIONAL WEATHER SERVICE SIOUX FALLS SD
600 AM CST WED NOV 26 2014

NOTE: "FAIR" INDICATES FEW OR NO CLOUDS BELOW 12,000 FEET WITH NO
SIGNIFICANT WEATHER AND OR OBSTRUCTIONS TO VISIBILITY.


SDZ038>040-050-052>070-261300-
SOUTHEAST SOUTH DAKOTA

CITY           SKY/WX    TMP DP  RH WIND       PRES   REMARKS
CHAMBERLAIN    NOT AVBL
HURON          LGT SNOW  18  14  84 N25G32    30.13R FOG     WCI   0
6HR MIN TEMP:  19; 6HR MAX TEMP:  32; 6HR PCP: TRACE;

MADISON        MIX PCPN  23  23 100 N24G30    29.98R WCI   7
MITCHELL       LGT SNOW  25  21  85 N29G37    30.07R FOG     WCI   8
6HR MIN TEMP:  25; 6HR MAX TEMP:  36; 6HR PCP: TRACE;

SIOUX FALLS    FLURRIES  29  25  85 N18       29.95R WCI  16
6HR MIN TEMP:  29; 6HR MAX TEMP:  31; 6HR PCP:  0.05;

WINNER         CLOUDY    22  18  85 NW20      30.17R WCI   7
YANKTON        CLOUDY   N/A N/A N/A NW22G32   29.94R
$$

MNZ071-072-080-081-089-090-097-098-261300-
SOUTHWEST MINNESOTA

CITY           SKY/WX    TMP DP  RH WIND       PRES   REMARKS
FAIRMONT       CLOUDY    25  21  86 E6        29.93R VSB 1   WCI  18
JACKSON        CLOUDY    28  27  93 NE8       29.92R WCI  20
LUVERNE        LGT SNOW  30  27  86 N12G18    29.93R WCI  21
MARSHALL       CLOUDY    23  19  86 N14       30.02R WCI  11
6HR MIN TEMP:  23; 6HR MAX TEMP:  28;

MONTEVIDEO     LGT SNOW  21  21 100 NE14      30.08R WCI   8
PIPESTONE      CLOUDY    25  23  93 NE15G23   29.95R WCI  12
REDWOOD FALLS  LGT SNOW  24  22  91 NE7       30.03R FOG     WCI  16
TRACY          LGT SNOW  24  23  95 N14       29.99R WCI  12
WINDOM         MIX PCPN  25  25 100 N10       29.94R WCI  15
WORTHINGTON    CLOUDY    25  23  93 N13       29.92R WCI  13
$$

IAZ001>003-012>014-020>022-031-032-NEZ013-014-SDZ071-261300-
NORTHWEST IOWA

CITY           SKY/WX    TMP DP  RH WIND       PRES   REMARKS
CHEROKEE       CLOUDY    30  30 100 NE3       29.86R
DENISON        LGT SNOW  32  32 100 N5        29.81R WCI  27
ESTHERVILLE    LGT SNOW  26  25  96 E7        29.91R FOG     WCI  18
LE MARS        CLOUDY    32  32 100 N8        29.89R WCI  25
ORANGE CITY    CLOUDY    30  28  93 N7        29.87R FOG     WCI  23
SHELDON        CLOUDY    28  28 100 NE12      29.88R WCI  18
SIOUX CITY     LGT RAIN  36  33  89 NW17      29.87R
6HR MIN TEMP:  34; 6HR MAX TEMP:  37; 6HR PCP:  0.01;

SPENCER        CLOUDY    28  25  88 E7        29.89R FOG     WCI  21
6HR MIN TEMP:  28; 6HR MAX TEMP:  29; 6HR PCP: TRACE;

STORM LAKE     CLOUDY    28  27  93 E8        29.85R FOG     WCI  20
$$

ABBREVIATIONS USED IN REMARKS
   TC - TEMPERATURE IN CELSIUS
  WCI - WIND CHILL INDEX
   HX - HEAT INDEX
  VSB - VISIBILITY



USA.gov is the U.S. government's official web portal to all federal, state and local government web resources and services.